Wind_Speed
18 19 20 21 22 23 23 22 22 22 21 21 22 23 24 25 27 28 29 31 32 33 35 36 37 37 38 38 38 38 39 40 41 42 42 42 41 41 41 40 40 40
18 19 21 22 23 24 25 24 23 23 23 23 24 25 26 27 28 29 30 31 33 34 35 37 38 39 39 39 40 40 40 41 43 44 44 44 43 43 43 42 42 41
19 20 22 23 24 25 26 25 25 25 25 25 26 27 27 28 30 31 31 32 34 35 36 37 38 39 40 40 41 41 42 43 44 45 46 46 45 45 45 45 44 43
20 21 22 24 25 26 27 27 27 27 27 27 28 29 29 30 31 32 33 34 35 36 37 38 39 40 41 41 42 42 43 44 44 46 47 47 47 47 47 47 46 45
21 22 23 24 26 27 28 29 29 29 29 29 30 31 31 32 32 33 34 35 36 37 38 39 40 41 41 42 43 43 44 44 45 46 47 48 49 48 48 48 47 46
24 23 24 25 27 28 29 30 31 31 31 31 32 32 33 34 34 34 35 36 37 38 40 41 41 41 42 43 44 45 45 45 46 47 48 49 49 49 50 49 48 48
26 26 26 26 27 29 30 31 32 33 32 33 33 34 35 36 36 36 36 37 38 39 40 41 42 42 43 43 45 46 46 46 47 48 48 49 50 51 51 51 49 49
29 28 28 28 29 30 31 32 33 34 34 34 35 37 37 38 38 38 38 39 40 40 41 42 43 43 44 44 45 46 47 48 48 49 50 50 51 52 52 51 50 49
32 31 30 31 32 32 33 34 35 36 36 36 38 39 40 40 40 40 40 40 41 42 42 43 43 44 45 45 46 46 47 48 49 50 51 52 53 53 53 52 51 50
35 34 34 34 35 35 35 36 37 38 38 39 40 41 42 42 42 42 42 42 42 43 45 45 44 45 46 46 47 48 48 49 51 52 52 53 54 54 54 53 52 51
36 36 37 37 38 38 38 38 39 39 40 42 42 43 44 44 43 43 43 43 44 46 48 48 47 47 47 48 49 49 50 51 52 53 54 55 55 55 55 55 54 53
38 39 40 40 41 41 40 40 40 41 42 43 44 45 46 46 46 46 46 46 48 50 51 51 50 50 50 51 52 51 52 53 54 55 56 57 57 56 56 56 56 56
40 41 42 43 44 43 43 42 42 42 43 44 46 47 48 48 48 49 49 49 50 52 53 53 53 53 52 54 55 54 54 54 55 56 57 58 58 58 58 58 58 58
43 43 44 45 46 45 45 44 43 44 45 46 47 48 49 49 50 51 52 52 53 55 55 56 56 55 55 57 57 56 56 57 58 58 59 60 60 60 60 59 59 59
45 46 47 48 48 47 46 46 45 46 47 48 49 50 50 51 52 54 54 55 56 57 58 58 59 58 58 59 60 59 59 60 61 60 60 62 62 62 62 61 60 60
48 49 50 50 50 49 48 48 48 48 49 50 51 51 51 52 54 55 56 57 58 60 61 61 62 61 61 62 63 62 62 63 64 63 63 63 63 63 63 63 62 61
51 52 52 52 51 50 50 50 50 51 52 52 52 53 53 54 56 57 58 59 61 62 63 64 64 64 64 65 65 65 64 65 66 66 65 65 64 64 64 64 64 63
53 54 54 53 53 52 52 52 52 54 54 54 54 55 55 57 58 59 59 61 62 63 65 67 67 67 67 67 68 67 66 67 69 69 67 67 67 66 66 66 66 66
54 54 55 55 55 54 53 53 55 56 56 56 57 57 58 58 59 60 61 61 62 64 67 69 70 70 70 70 70 69 67 68 70 70 69 68 68 68 69 69 68 67
54 55 57 58 56 55 55 56 57 58 59 59 60 60 60 61 61 62 62 62 62 65 68 70 71 72 72 72 72 70 69 70 72 71 70 70 69 70 70 70 67 65
56 58 59 59 58 58 58 59 60 61 61 62 62 63 63 64 64 64 64 64 64 66 69 71 72 73 74 73 73 71 71 72 72 71 70 70 71 71 70 67 65 65
57 58 59 60 60 60 60 61 62 63 63 64 65 66 66 66 67 68 68 67 67 68 71 72 73 74 74 74 73 73 73 74 72 71 71 71 71 71 68 66 66 67
59 60 62 62 62 62 63 64 65 65 66 66 67 68 69 69 70 71 71 70 70 70 72 74 74 75 75 75 74 74 74 74 72 71 71 70 70 69 67 67 69 69
62 63 64 65 65 66 67 67 68 69 69 69 70 71 72 72 73 73 73 73 72 72 73 75 75 75 75 75 75 75 75 73 72 71 71 70 69 70 69 70 70 70
65 65 66 68 69 70 70 71 72 73 72 72 73 73 74 74 74 75 75 74 73 74 75 76 76 76 76 76 76 76 74 72 72 72 72 71 72 73 72 71 70 70
67 68 69 71 72 73 75 75 75 76 75 75 75 74 75 76 76 76 75 75 75 75 76 77 77 77 76 75 75 75 73 73 74 74 74 74 74 73 72 71 71 70
Wind_Direction
286 294 299 303 304 306 306 308 311 313 316 318 319 318 319 320 322 324 327 329 330 331 332 334 336 338 339 339 341 342 342 343 343 342 341 341 340 338 338 337 335 333
283 290 295 298 302 303 304 307 309 310 313 316 317 317 318 319 321 323 325 327 328 329 331 332 334 336 337 338 339 340 341 341 341 340 340 339 338 338 337 337 335 333
279 286 291 294 298 301 302 305 307 308 311 314 315 315 317 318 319 321 323 325 326 328 329 331 333 334 335 336 337 338 339 339 339 338 338 338 338 337 337 337 335 333
276 281 285 290 294 298 300 303 305 306 309 312 313 313 315 316 318 320 322 323 325 326 327 329 331 332 334 335 336 336 337 337 337 337 336 336 336 336 336 336 334 332
273 276 280 285 290 294 298 301 303 305 308 309 311 312 313 314 316 318 320 322 323 324 325 327 329 331 333 334 334 335 334 334 334 335 335 335 335 335 335 335 333 332
271 273 277 280 285 290 295 299 302 303 306 307 308 309 310 312 314 316 318 319 321 322 324 326 328 330 331 332 333 333 332 332 332 333 334 334 334 333 334 334 333 332
271 271 274 277 282 287 292 297 300 301 304 306 306 307 308 310 312 314 316 318 319 321 322 324 326 328 330 331 331 330 330 330 331 332 332 333 333 333 333 334 333 331
272 273 275 277 280 283 289 295 298 299 301 304 304 305 307 308 310 313 315 316 318 319 320 322 324 326 328 329 329 329 328 329 330 331 331 332 332 332 333 333 332 330
270 274 276 278 279 282 286 292 296 297 300 301 302 304 305 307 309 312 313 315 317 318 318 320 322 324 325 327 327 327 327 328 329 329 330 331 331 332 332 332 330 328
266 271 276 278 280 281 284 289 293 295 297 299 301 302 304 306 309 311 311 313 315 317 317 318 319 322 324 325 325 326 326 327 327 328 329 330 331 331 331 330 328 325
267 271 276 280 281 282 284 287 290 293 295 298 299 301 302 305 308 310 311 311 313 315 316 316 316 318 321 324 325 325 326 326 327 327 328 329 329 329 329 328 326 324
270 273 276 279 280 282 284 286 288 291 294 296 297 299 302 305 307 310 311 311 312 313 314 315 315 315 318 322 324 324 325 325 325 326 327 327 327 328 327 326 325 323
271 273 275 277 279 280 282 284 287 290 292 295 296 299 301 304 307 309 311 312 312 313 314 315 316 316 316 319 322 323 323 323 324 325 325 325 325 326 325 325 324 322
270 272 274 275 277 279 281 284 287 289 292 294 296 299 301 303 306 309 311 312 313 313 314 315 316 317 316 316 319 320 321 322 323 323 324 324 324 324 324 324 323 321
270 272 272 274 276 278 281 284 287 289 292 294 296 299 301 303 305 308 310 312 312 313 314 314 315 315 315 315 317 318 320 321 321 322 323 322 323 323 323 323 322 321
270 271 272 274 276 279 282 285 288 290 292 294 296 299 301 303 305 307 309 311 311 312 313 313 313 313 314 315 316 317 318 319 319 320 321 321 322 323 322 322 322 320
269 271 272 274 277 281 284 287 289 291 293 294 296 298 300 302 304 306 308 309 310 311 311 311 311 312 313 314 315 316 317 317 318 319 320 321 321 322 322 322 321 319
269 271 273 276 280 283 286 288 290 292 293 294 295 297 300 302 304 305 306 308 309 310 310 310 310 310 312 312 313 314 316 316 317 318 320 321 321 321 322 321 320 320
269 271 274 278 281 284 286 288 290 292 293 294 295 297 299 301 302 303 305 306 307 308 307 308 309 309 310 311 312 313 314 316 317 318 319 320 320 321 321 321 321 322
268 270 274 278 281 284 286 288 290 292 293 293 294 296 298 300 300 301 302 304 305 305 304 305 306 308 309 310 311 312 313 315 316 317 318 319 319 320 321 321 322 321
268 271 275 279 282 284 287 288 290 291 292 293 294 295 297 298 299 300 301 302 302 302 302 303 305 306 307 309 310 311 312 314 315 316 316 317 318 320 321 321 320 320
269 272 276 280 283 286 287 288 289 290 291 292 293 294 296 297 297 298 299 300 300 300 301 303 304 305 306 307 308 309 311 313 314 314 314 315 318 319 319 319 319 318
272 275 279 282 284 285 287 287 288 289 290 290 291 293 294 295 295 296 297 299 299 300 301 302 303 303 305 306 307 308 310 312 312 312 313 315 317 318 317 317 318 317
275 278 280 282 284 285 286 286 287 287 288 289 290 291 292 292 293 294 296 297 298 299 300 301 301 302 303 305 305 307 309 310 310 311 312 314 315 315 316 316 317 316
277 279 280 281 283 283 284 284 284 285 285 286 287 288 289 290 291 293 295 296 298 298 299 300 300 301 303 304 304 306 308 308 309 310 311 312 313 314 315 316 316 315
276 278 279 280 280 280 281 281 281 282 283 284 285 286 287 288 290 291 293 295 296 297 298 299 299 301 302 303 304 306 307 307 308 308 310 311 313 314 315 315 314 314
Height
10984 10984 10983 10983 10982 10982 10981 10982 10981 10980 10980 10979 10977 10975 10974 10973 10971 10970 10969 10967 10965 10963 10961 10958 10957 10955 10953 10951 10948 10946 10944 10941 10938 10936 10934 10932 10930 10927 10924 10921 10918 10915
10981 10981 10981 10981 10980 10979 10979 10979 10979 10978 10978 10977 10975 10973 10972 10970 10969 10968 10967 10965 10963 10962 10959 10957 10954 10952 10950 10948 10945 10943 10940 10938 10935 10933 10931 10929 10926 10924 10921 10918 10915 10912
10978 10978 10978 10978 10978 10977 10977 10977 10977 10976 10975 10974 10973 10971 10970 10968 10967 10965 10965 10963 10962 10959 10957 10955 10953 10950 10948 10946 10943 10940 10938 10935 10932 10930 10928 10926 10923 10920 10917 10914 10912 10909
10975 10975 10975 10975 10975 10975 10974 10974 10974 10973 10973 10972 10970 10968 10967 10966 10964 10963 10962 10960 10959 10957 10955 10953 10951 10949 10946 10943 10941 10938 10935 10933 10930 10928 10925 10922 10920 10917 10914 10911 10908 10905
10972 10971 10972 10972 10972 10972 10972 10971 10971 10971 10970 10969 10967 10966 10964 10963 10962 10961 10959 10957 10956 10954 10952 10950 10949 10946 10943 10940 10937 10935 10932 10930 10928 10926 10923 10920 10917 10914 10911 10908 10905 10902
10968 10968 10968 10968 10968 10969 10969 10969 10968 10968 10967 10966 10965 10963 10962 10960 10959 10958 10957 10955 10953 10951 10949 10947 10946 10944 10941 10938 10934 10932 10930 10927 10925 10923 10920 10917 10914 10911 10908 10905 10902 10899
10965 10965 10965 10965 10965 10965 10965 10966 10965 10965 10965 10964 10962 10960 10959 10957 10956 10955 10954 10953 10951 10949 10947 10944 10943 10941 10939 10936 10933 10930 10927 10924 10922 10919 10917 10914 10910 10907 10904 10901 10898 10895
10962 10961 10961 10961 10961 10961 10962 10962 10962 10961 10961 10960 10959 10957 10955 10954 10953 10952 10951 10949 10947 10946 10944 10942 10940 10938 10936 10934 10931 10928 10924 10921 10918 10916 10913 10910 10907 10903 10900 10897 10895 10892
10958 10958 10958 10958 10957 10957 10958 10958 10958 10958 10958 10957 10955 10954 10952 10950 10950 10949 10947 10945 10944 10942 10941 10939 10937 10935 10933 10931 10929 10926 10922 10919 10916 10913 10910 10906 10903 10900 10897 10894 10891 10889
10954 10954 10954 10954 10954 10953 10954 10954 10954 10954 10953 10953 10951 10950 10948 10947 10946 10945 10943 10942 10940 10938 10936 10935 10934 10932 10930 10928 10926 10923 10919 10916 10912 10909 10906 10903 10899 10896 10893 10890 10887 10885
10950 10950 10950 10950 10950 10949 10949 10950 10950 10950 10949 10948 10947 10946 10944 10943 10943 10941 10940 10938 10936 10934 10932 10930 10929 10927 10926 10924 10922 10918 10915 10911 10908 10904 10901 10898 10896 10892 10889 10886 10884 10881
10946 10946 10946 10946 10946 10945 10945 10945 10946 10946 10945 10944 10942 10941 10940 10939 10938 10937 10936 10934 10932 10929 10927 10925 10923 10921 10920 10918 10917 10914 10910 10907 10904 10900 10897 10894 10892 10889 10886 10883 10880 10876
10941 10942 10942 10942 10941 10941 10941 10941 10941 10941 10941 10940 10938 10937 10935 10934 10933 10932 10931 10929 10927 10924 10921 10918 10917 10915 10913 10912 10911 10909 10906 10903 10900 10897 10893 10889 10887 10885 10882 10879 10875 10871
10937 10938 10938 10937 10936 10936 10936 10936 10937 10937 10936 10935 10934 10933 10931 10930 10928 10927 10926 10924 10921 10918 10915 10913 10911 10909 10908 10906 10905 10903 10901 10898 10895 10892 10889 10885 10882 10880 10877 10874 10870 10866
10933 10933 10933 10932 10932 10932 10932 10932 10932 10932 10932 10931 10930 10929 10927 10926 10924 10922 10920 10919 10916 10913 10911 10908 10906 10905 10903 10901 10899 10897 10895 10892 10889 10887 10884 10880 10877 10874 10871 10868 10864 10861
10929 10928 10927 10927 10927 10927 10927 10927 10927 10927 10927 10926 10925 10924 10923 10922 10920 10918 10916 10914 10911 10908 10906 10903 10900 10899 10897 10895 10892 10891 10889 10886 10882 10881 10879 10875 10872 10869 10865 10861 10858 10854
10924 10922 10922 10922 10922 10922 10922 10922 10922 10922 10922 10921 10921 10920 10918 10917 10915 10913 10911 10909 10906 10903 10899 10896 10894 10893 10891 10889 10887 10885 10883 10879 10876 10874 10872 10869 10866 10863 10859 10855 10851 10847
10919 10918 10917 10917 10917 10918 10918 10918 10917 10917 10917 10916 10916 10915 10914 10912 10910 10908 10906 10904 10901 10897 10893 10889 10887 10886 10885 10883 10880 10879 10877 10873 10868 10866 10864 10861 10858 10856 10852 10849 10844 10840
10915 10914 10911 10911 10912 10913 10913 10913 10912 10912 10911 10911 10910 10910 10910 10908 10905 10903 10901 10899 10896 10892 10886 10882 10879 10878 10877 10875 10873 10872 10870 10866 10861 10858 10856 10854 10851 10848 10845 10841 10836 10831
10910 10909 10906 10906 10907 10908 10909 10909 10908 10907 10906 10905 10904 10904 10903 10902 10900 10898 10896 10895 10892 10887 10881 10877 10874 10872 10870 10868 10866 10864 10863 10859 10855 10851 10849 10847 10844 10842 10838 10833 10829 10824
10904 10903 10901 10901 10903 10904 10904 10903 10902 10901 10900 10899 10897 10897 10896 10895 10893 10891 10890 10889 10887 10882 10876 10872 10869 10866 10863 10861 10859 10857 10856 10853 10848 10845 10842 10840 10837 10835 10831 10826 10822 10818
10898 10898 10897 10896 10897 10898 10898 10897 10896 10895 10894 10893 10891 10889 10888 10887 10885 10882 10882 10881 10878 10874 10869 10865 10862 10859 10857 10855 10852 10851 10849 10846 10842 10839 10836 10834 10831 10828 10825 10821 10817 10813
10891 10892 10891 10891 10892 10892 10891 10890 10889 10888 10887 10886 10884 10883 10881 10879 10877 10874 10873 10872 10870 10866 10863 10858 10854 10852 10850 10848 10846 10844 10842 10839 10835 10832 10830 10828 10826 10822 10819 10815 10811 10807
10884 10885 10885 10884 10884 10884 10883 10882 10881 10880 10879 10878 10877 10875 10873 10871 10869 10867 10865 10864 10862 10859 10856 10852 10847 10845 10844 10842 10839 10837 10835 10831 10828 10825 10823 10822 10820 10817 10813 10809 10805 10800
10876 10877 10876 10875 10875 10874 10873 10872 10871 10870 10870 10869 10868 10867 10864 10863 10862 10860 10857 10856 10855 10852 10849 10845 10841 10839 10838 10835 10831 10829 10827 10823 10820 10817 10816 10815 10813 10809 10806 10802 10798 10794
10868 10867 10866 10865 10864 10862 10861 10860 10860 10859 10859 10860 10859 10858 10856 10855 10855 10854 10852 10850 10848 10846 10842 10838 10833 10832 10832 10828 10824 10821 10818 10815 10811 10809 10808 10807 10804 10801 10798 10794 10790 10786